Hourly Data Report for October 04, 2015

All times are specified in Local Standard Time (LST). Add 1 hour to adjust for Daylight Saving Time where and when it is observed.

HALL BEACH A
NUNAVUT

68°46'33.000" N
81°14'33.000" W
9.10 m
2402354
71293
YUX

Download Data

Hourly Data (October 2015)
Hourly Data Report for October 4, 2015
Temp Definition
°C
Dew Point Temp Definition
°C
Rel Hum Definition
%
Wind Dir Definition
10's deg

Wind Spd Definition
km/h
Visibility Definition
km
Stn Press Definition
kPa
Hmdx Definition


Wind Chill Definition


Weather Definition


TIME
00:00 Legend Double Dagger -1.9 -3.3 90 33 18 16.1 102.32   -7 LegendNANA
01:00 Legend Double Dagger -2.1 -3.1 93 33 18 16.1 102.31   -8 LegendNANA
02:00 Legend Double Dagger -0.9 -2.8 87 32 24 16.1 102.35   -7 LegendNANA
03:00 Legend Double Dagger -1.2 -3.7 83 31 24 16.1 102.39   -7 LegendNANA
04:00 Legend Double Dagger -2.3 -4.6 84 32 17 16.1 102.42   -8 LegendNANA
05:00 Legend Double Dagger -2.4 -3.9 90 31 17 16.1 102.42   -8 LegendNANA
06:00 Legend Double Dagger -2.2 -3.5 91 30 21 16.1 102.43   -8 LegendNANA
07:00 Legend Double Dagger -1.4 -2.2 94 29 21 16.1 102.42   -7 LegendNANA
08:00 Legend Double Dagger -1.0 -2.4 90 30 17 16.1 102.41   -6 LegendNANA
09:00 Legend Double Dagger -0.6 -3.3 82 33 13 16.1 102.39   -5 LegendNANA
10:00 Legend Double Dagger -0.3 -4.8 72 32 9 16.1 102.38   -3 LegendNANA
11:00 Legend Double Dagger -0.5 -4.3 76 25 17 16.1 102.35   -5 LegendNANA
12:00 Legend Double Dagger -0.2 -4.0 76 25 17 16.1 102.29   -5 LegendNANA
13:00 Legend Double Dagger 0.4 -4.6 69 27 18 16.1 102.25     LegendNANA
14:00 Legend Double Dagger -0.3 -4.4 74 27 13 16.1 102.19   -4 LegendNANA
15:00 Legend Double Dagger 0.0 -4.1 74 25 13 16.1 102.15   -4 LegendNANA
16:00 Legend Double Dagger -0.9 -3.6 82 22 15 16.1 102.13   -6 LegendNANA
17:00 Legend Double Dagger -1.5 -3.7 85 22 18 16.1 102.08   -7 LegendNANA
18:00 Legend Double Dagger -2.1 -3.7 89 21 15 16.1 102.05   -7 LegendNANA
19:00 Legend Double Dagger -1.9 -3.2 91 22 17 16.1 101.99   -7 LegendNANA
20:00 Legend Double Dagger -1.5 -2.9 90 23 9 16.1 101.94   -5 LegendNANA
21:00 Legend Double Dagger -1.0 -2.6 89 21 9 16.1 101.88   -4 LegendNANA
22:00 Legend Double Dagger -1.5 -2.6 92 22 11 16.1 101.83   -5 LegendNANA
23:00 Legend Double Dagger -1.6 -3.0 90 24 15 16.1 101.76   -6 LegendNANA

Notes on Data Quality.

Legend

  • E = Estimated
  • M = Missing
  • NA = Not Available
  • ‡ = Partner data that is not subject to review by the National Climate Archives
Date modified: